EW8522 Weather Reports


time (UTC)temp
C
wind
direction
speed
KPH
gust
KPH
rain 1hr
cm
rain 24hr
cm
rain mn
cm
humidity
%
barometer
mb
20260507043023 13 328 0.0 0.0 0.00 0.00 0.00 61 1011.2
20260507041521 14 328 0.0 0.0 0.00 0.00 0.00 60 1011.2
20260507040024 14 328 0.0 0.0 0.00 0.00 0.00 60 1011.2
20260507034522 14 328 0.0 0.0 0.00 0.00 0.00 59 1011.0
20260507033020 15 328 0.0 0.0 0.00 0.00 0.00 59 1010.6
20260507031516 15 328 0.0 0.0 0.00 0.00 0.00 58 1010.3
20260507030012 15 328 0.0 0.0 0.00 0.00 0.00 57 1010.1
20260507024509 15 328 0.0 0.0 0.00 0.00 0.00 57 1009.8
20260507023007 16 328 0.0 0.0 0.00 0.00 0.00 57 1009.7
20260507021506 16 328 0.0 0.0 0.00 0.00 0.00 55 1009.7
20260507020012 16 328 0.0 0.0 0.00 0.00 0.00 55 1009.6
20260507014511 16 328 0.0 0.0 0.00 0.00 0.00 54 1009.4
20260507013010 16 328 0.0 0.0 0.00 0.00 0.00 53 1009.5
20260507011510 17 328 0.0 0.0 0.00 0.00 0.00 53 1009.4
20260507010003 17 328 0.0 0.0 0.00 0.00 0.00 53 1009.3
20260507004502 17 328 0.0 0.0 0.00 0.00 0.00 53 1009.2
20260507003001 17 328 0.0 0.0 0.00 0.00 0.00 54 1009.2
20260507001606 18 328 0.0 0.0 0.00 0.00 0.00 53 1009.0
20260507000009 18 328 0.0 0.0 0.00 0.00 0.00 52 1008.7
20260506234508 18 331 0.0 0.0 0.00 0.00 0.00 53 1008.6
20260506233008 18 331 0.0 0.0 0.00 0.00 0.00 52 1008.4
20260506231512 18 332 0.0 0.0 0.00 0.00 0.00 51 1008.3
20260506230004 18 334 0.0 0.0 0.00 0.00 0.00 50 1008.2
20260506224503 19 346 0.0 0.0 0.00 0.00 0.00 48 1008.2
20260506223003 20 346 0.0 0.0 0.00 0.00 0.00 47 1008.1
20260506221505 20 346 0.0 0.0 0.00 0.00 0.00 45 1008.3
20260506220005 20 346 0.0 0.0 0.00 0.00 0.00 44 1008.4
20260506214504 20 346 0.0 0.0 0.00 0.00 0.00 43 1008.5
20260506213011 20 346 0.0 0.0 0.00 0.00 0.00 43 1008.5
20260506211504 20 346 0.0 0.0 0.00 0.00 0.00 41 1008.6
20260506210005 20 346 0.0 0.0 0.00 0.00 0.00 41 1008.5
20260506204601 20 346 0.0 0.0 0.00 0.00 0.00 43 1008.5
20260506203100 19 346 0.0 0.0 0.00 0.00 0.00 45 1008.5
20260506201620 19 346 0.0 0.0 0.00 0.00 0.00 46 1008.5
20260506200051 18 346 0.0 0.0 0.00 0.00 0.00 46 1008.5
20260506194554 18 346 0.0 0.0 0.00 0.00 0.00 46 1008.5
20260506193054 18 346 0.0 0.0 0.00 0.00 0.00 47 1008.5
20260506191550 18 346 0.0 0.0 0.00 0.00 0.00 47 1008.7
20260506190100 18 346 0.0 0.0 0.00 0.00 0.00 46 1008.7
20260506184602 18 346 0.0 0.0 0.00 0.00 0.00 50 1008.5
20260506183057 18 346 0.0 0.0 0.00 0.00 0.00 53 1008.8
20260506181556 18 346 0.0 0.0 0.00 0.00 0.00 54 1008.7
20260506180055 18 346 0.0 0.0 0.00 0.00 0.00 53 1008.6
20260506174553 18 346 0.0 0.0 0.00 0.00 0.00 53 1008.4
20260506173107 17 346 0.0 0.0 0.00 0.00 0.00 57 1008.4
20260506171554 16 346 0.0 0.0 0.00 0.00 0.00 63 1008.4
20260506170036 15 346 0.0 0.0 0.00 0.00 0.00 65 1008.5
20260506164536 -17 0.0 0.0 0.00 0.00 0.00 1008.5
20260506163049 -17 0.0 0.0 0.00 0.00 0.00 1008.6
20260506161538 -17 0.0 0.0 0.00 0.00 0.00 1008.7
20260506160027 -17 0.0 0.0 0.00 0.00 0.00 1008.8
20260506154530 -17 0.0 0.0 0.00 0.00 0.00 1008.9
20260506153018 -17 0.0 0.0 0.00 0.00 0.00 1008.9
20260506151515 -17 0.0 0.0 0.00 0.00 0.00 1008.8
20260506150011 -17 0.0 0.0 0.00 0.00 0.00 1009.1
20260506144509 -17 0.0 0.0 0.00 0.00 0.00 1009.2
20260506143007 -17 0.0 0.0 0.00 0.00 0.00 1009.2
20260506141600 -17 0.0 0.0 0.00 0.00 0.00 1009.1
20260506134553 -17 0.0 0.0 0.00 0.00 0.00 1009.0
20260506133050 -17 0.0 0.0 0.00 0.00 0.00 1009.0
20260506131544 -17 0.0 0.0 0.00 0.00 0.00 1009.0
20260506130042 -17 0.0 0.0 0.00 0.00 0.00 1008.9
20260506124539 -17 0.0 0.0 0.00 0.00 0.00 1008.8
20260506123035 -17 0.0 0.0 0.00 0.00 0.00 1008.7
20260506121531 -17 0.0 0.0 0.00 0.00 0.00 1008.6
20260506120031 -17 0.0 0.0 0.00 0.00 0.00 1008.5
20260506114524 -17 0.0 0.0 0.00 0.00 0.00 1008.6
20260506113019 -17 0.0 0.0 0.00 0.00 0.00 1008.5
20260506111512 -17 0.0 0.0 0.00 0.00 0.00 1008.5
20260506110010 -17 0.0 0.0 0.00 0.00 0.00 1008.3
20260506104505 -17 0.0 0.0 0.00 0.00 0.00 1008.2
20260506103002 -17 0.0 0.0 0.00 0.00 0.00 1008.1
20260506101558 -17 0.0 0.0 0.00 0.00 0.00 1008.0
20260506100055 -17 0.0 0.0 0.00 0.00 0.00 1008.0
20260506094551 -17 0.0 0.0 0.00 0.00 0.00 1008.0
20260506093105 -17 0.0 0.0 0.00 0.00 0.00 1008.0
20260506091546 -17 0.0 0.0 0.00 0.00 0.00 1007.9
20260506090042 -17 0.0 0.0 0.00 0.00 0.00 1007.8
20260506084536 -17 0.0 0.0 0.00 0.00 0.00 1007.8
20260506083034 -17 0.0 0.0 0.00 0.00 0.00 1007.9
20260506081527 -17 0.0 0.0 0.00 0.00 0.00 1007.7
20260506073018 -17 0.0 0.0 0.00 0.00 0.00 1007.4
20260506071514 -17 0.0 0.0 0.00 0.00 0.00 1007.3
20260506061512 -17 0.0 0.0 0.00 0.00 0.00 1006.9
20260506044506 -17 0.0 0.0 0.00 0.00 0.00 1006.5